| time (UTC) | temp C | wind direction | speed KPH | gust KPH | rain 1hr cm | rain 24hr cm | rain mn cm | humidity % | barometer mb |
| 20260504014846 | 15 | 199 | 3.2 | 9.7 | 0.00 | 0.00 | 0.00 | 7 | 983.4 |
| 20260504014318 | 15 | 220 | 3.2 | 6.4 | 0.00 | 0.00 | 0.00 | 7 | 983.4 |
| 20260504013846 | 16 | 226 | 3.2 | 4.8 | 0.00 | 0.00 | 0.00 | 6 | 983.3 |
| 20260504013317 | 16 | 229 | 3.2 | 8.0 | 0.00 | 0.00 | 0.00 | 6 | 983.2 |
| 20260504012846 | 16 | 193 | 3.2 | 4.8 | 0.00 | 0.00 | 0.00 | 6 | 983.2 |
| 20260504012318 | 16 | 201 | 3.2 | 4.8 | 0.00 | 0.00 | 0.00 | 6 | 983.2 |
| 20260504011847 | 16 | 225 | 4.8 | 9.7 | 0.00 | 0.00 | 0.00 | 6 | 983.2 |
| 20260504011319 | 16 | 186 | 3.2 | 6.4 | 0.00 | 0.00 | 0.00 | 6 | 983.1 |
| 20260504010847 | 17 | 229 | 3.2 | 6.4 | 0.00 | 0.00 | 0.00 | 6 | 983.1 |
| 20260504010318 | 17 | 206 | 4.8 | 11.3 | 0.00 | 0.00 | 0.00 | 6 | 983.1 |
| 20260504005847 | 17 | 227 | 4.8 | 11.3 | 0.00 | 0.00 | 0.00 | 6 | 983.2 |
| 20260504005318 | 17 | 199 | 3.2 | 8.0 | 0.00 | 0.00 | 0.00 | 6 | 983.2 |
| 20260504004847 | 17 | 206 | 3.2 | 6.4 | 0.00 | 0.00 | 0.00 | 6 | 983.2 |
| 20260504004318 | 17 | 242 | 4.8 | 6.4 | 0.00 | 0.00 | 0.00 | 6 | 983.2 |
| 20260504003847 | 17 | 214 | 3.2 | 4.8 | 0.00 | 0.00 | 0.00 | 6 | 983.0 |
| 20260504003318 | 18 | 211 | 6.4 | 16.1 | 0.00 | 0.00 | 0.00 | 6 | 982.9 |
| 20260504002847 | 18 | 202 | 6.4 | 17.7 | 0.00 | 0.00 | 0.00 | 6 | 983.0 |
| 20260504002317 | 18 | 229 | 6.4 | 24.1 | 0.00 | 0.00 | 0.00 | 6 | 983.1 |
| 20260504001846 | 18 | 229 | 8.0 | 14.5 | 0.00 | 0.00 | 0.00 | 6 | 983.1 |
| 20260504001318 | 18 | 222 | 6.4 | 14.5 | 0.00 | 0.00 | 0.00 | 5 | 983.0 |
| 20260504000846 | 19 | 209 | 8.0 | 16.1 | 0.00 | 0.00 | 0.00 | 5 | 982.9 |
| 20260504000318 | 19 | 207 | 6.4 | 11.3 | 0.00 | 0.00 | 0.00 | 5 | 983.0 |
| 20260503235846 | 19 | 215 | 6.4 | 14.5 | 0.00 | 0.00 | 0.00 | 5 | 983.1 |
| 20260503235317 | 19 | 209 | 6.4 | 14.5 | 0.00 | 0.00 | 0.00 | 5 | 983.1 |
| 20260503234846 | 19 | 226 | 6.4 | 19.3 | 0.00 | 0.00 | 0.00 | 5 | 983.2 |
| 20260503234317 | 19 | 209 | 9.7 | 14.5 | 0.00 | 0.00 | 0.00 | 5 | 983.2 |
| 20260503233846 | 20 | 205 | 6.4 | 12.9 | 0.00 | 0.00 | 0.00 | 5 | 983.3 |
| 20260503233317 | 19 | 224 | 8.0 | 12.9 | 0.00 | 0.00 | 0.00 | 5 | 983.4 |
| 20260503232846 | 19 | 192 | 8.0 | 19.3 | 0.00 | 0.00 | 0.00 | 5 | 983.4 |
| 20260503232318 | 20 | 212 | 9.7 | 14.5 | 0.00 | 0.00 | 0.00 | 5 | 983.4 |
| 20260503231846 | 20 | 212 | 9.7 | 24.1 | 0.00 | 0.00 | 0.00 | 5 | 983.4 |
| 20260503231317 | 20 | 225 | 8.0 | 17.7 | 0.00 | 0.00 | 0.00 | 5 | 983.6 |
| 20260503230846 | 19 | 214 | 9.7 | 17.7 | 0.00 | 0.00 | 0.00 | 5 | 983.6 |
| 20260503230317 | 19 | 218 | 9.7 | 19.3 | 0.00 | 0.00 | 0.00 | 5 | 983.6 |
| 20260503225846 | 19 | 213 | 11.3 | 22.5 | 0.00 | 0.00 | 0.00 | 5 | 983.7 |
| 20260503225319 | 20 | 217 | 8.0 | 17.7 | 0.00 | 0.00 | 0.00 | 5 | 983.7 |
| 20260503224846 | 19 | 229 | 11.3 | 16.1 | 0.00 | 0.00 | 0.00 | 5 | 983.9 |
| 20260503224317 | 18 | 201 | 11.3 | 19.3 | 0.00 | 0.00 | 0.00 | 5 | 983.9 |
| 20260503223846 | 18 | 207 | 9.7 | 20.9 | 0.00 | 0.00 | 0.00 | 5 | 983.9 |
| 20260503223317 | 18 | 225 | 9.7 | 14.5 | 0.00 | 0.00 | 0.00 | 5 | 983.9 |
| 20260503222846 | 18 | 209 | 12.9 | 22.5 | 0.00 | 0.00 | 0.00 | 5 | 983.9 |
| 20260503222317 | 18 | 257 | 11.3 | 25.7 | 0.00 | 0.00 | 0.00 | 6 | 983.9 |
| 20260503221846 | 18 | 215 | 11.3 | 20.9 | 0.00 | 0.00 | 0.00 | 5 | 983.9 |
| 20260503221317 | 18 | 221 | 9.7 | 17.7 | 0.00 | 0.00 | 0.00 | 5 | 984.1 |
| 20260503220846 | 18 | 204 | 6.4 | 14.5 | 0.00 | 0.00 | 0.00 | 6 | 984.1 |
| 20260503220317 | 18 | 199 | 6.4 | 11.3 | 0.00 | 0.00 | 0.00 | 6 | 984.2 |
| 20260503215846 | 18 | 210 | 9.7 | 19.3 | 0.00 | 0.00 | 0.00 | 6 | 984.4 |
| 20260503215317 | 18 | 216 | 8.0 | 14.5 | 0.00 | 0.00 | 0.00 | 6 | 984.4 |
| 20260503214846 | 18 | 196 | 6.4 | 12.9 | 0.00 | 0.00 | 0.00 | 6 | 984.2 |
| 20260503214317 | 18 | 220 | 8.0 | 14.5 | 0.00 | 0.00 | 0.00 | 6 | 984.2 |
| 20260503213846 | 18 | 213 | 8.0 | 22.5 | 0.00 | 0.00 | 0.00 | 5 | 984.2 |
| 20260503213317 | 18 | 202 | 8.0 | 12.9 | 0.00 | 0.00 | 0.00 | 6 | 984.2 |
| 20260503212846 | 18 | 209 | 6.4 | 14.5 | 0.00 | 0.00 | 0.00 | 6 | 984.5 |
| 20260503212318 | 17 | 238 | 8.0 | 14.5 | 0.00 | 0.00 | 0.00 | 6 | 984.7 |
| 20260503211847 | 17 | 201 | 11.3 | 19.3 | 0.00 | 0.00 | 0.00 | 6 | 984.7 |
| 20260503211319 | 17 | 207 | 8.0 | 16.1 | 0.00 | 0.00 | 0.00 | 6 | 984.7 |
| 20260503210847 | 17 | 223 | 9.7 | 19.3 | 0.00 | 0.00 | 0.00 | 6 | 984.7 |
| 20260503210318 | 17 | 197 | 14.5 | 25.7 | 0.00 | 0.00 | 0.00 | 6 | 984.8 |
| 20260503205847 | 17 | 203 | 11.3 | 20.9 | 0.00 | 0.00 | 0.00 | 5 | 984.9 |
| 20260503205318 | 17 | 214 | 11.3 | 24.1 | 0.00 | 0.00 | 0.00 | 5 | 984.9 |
| 20260503204847 | 18 | 208 | 11.3 | 24.1 | 0.00 | 0.00 | 0.00 | 5 | 985.1 |
| 20260503204318 | 18 | 233 | 11.3 | 22.5 | 0.00 | 0.00 | 0.00 | 5 | 985.1 |
| 20260503203847 | 18 | 243 | 16.1 | 20.9 | 0.00 | 0.00 | 0.00 | 5 | 985.1 |
| 20260503203317 | 18 | 214 | 14.5 | 19.3 | 0.00 | 0.00 | 0.00 | 5 | 985.1 |
| 20260503202846 | 19 | 202 | 11.3 | 25.7 | 0.00 | 0.00 | 0.00 | 5 | 985.1 |
| 20260503202317 | 18 | 200 | 11.3 | 19.3 | 0.00 | 0.00 | 0.00 | 5 | 984.9 |
| 20260503201846 | 18 | 239 | 17.7 | 29.0 | 0.00 | 0.00 | 0.00 | 5 | 984.9 |
| 20260503201318 | 18 | 177 | 12.9 | 25.7 | 0.00 | 0.00 | 0.00 | 5 | 985.4 |
| 20260503200846 | 19 | 267 | 16.1 | 27.4 | 0.00 | 0.00 | 0.00 | 5 | 985.4 |
| 20260503200318 | 19 | 204 | 19.3 | 25.7 | 0.00 | 0.00 | 0.00 | 5 | 985.6 |
| 20260503195846 | 19 | 233 | 14.5 | 27.4 | 0.00 | 0.00 | 0.00 | 5 | 985.6 |
| 20260503195317 | 18 | 233 | 12.9 | 29.0 | 0.00 | 0.00 | 0.00 | 5 | 985.6 |
| 20260503194846 | 18 | 216 | 17.7 | 29.0 | 0.00 | 0.00 | 0.00 | 5 | 985.9 |
| 20260503194317 | 18 | 212 | 16.1 | 25.7 | 0.00 | 0.00 | 0.00 | 5 | 985.9 |
| 20260503193846 | 17 | 209 | 11.3 | 17.7 | 0.00 | 0.00 | 0.00 | 5 | 986.3 |
| 20260503193317 | 17 | 211 | 12.9 | 24.1 | 0.00 | 0.00 | 0.00 | 5 | 986.6 |
| 20260503192846 | 17 | 181 | 12.9 | 24.1 | 0.00 | 0.00 | 0.00 | 5 | 986.6 |
| 20260503192318 | 17 | 240 | 12.9 | 22.5 | 0.00 | 0.00 | 0.00 | 5 | 986.7 |
| 20260503191846 | 17 | 300 | 12.9 | 24.1 | 0.00 | 0.00 | 0.00 | 5 | 986.7 |
| 20260503191317 | 16 | 204 | 11.3 | 19.3 | 0.00 | 0.00 | 0.00 | 6 | 987.1 |
| 20260503190846 | 16 | 192 | 17.7 | 29.0 | 0.00 | 0.00 | 0.00 | 5 | 987.1 |
| 20260503190318 | 16 | 206 | 9.7 | 22.5 | 0.00 | 0.00 | 0.00 | 5 | 987.3 |
| 20260503185846 | 17 | 226 | 8.0 | 16.1 | 0.00 | 0.00 | 0.00 | 5 | 987.6 |
| 20260503185318 | 16 | 229 | 16.1 | 29.0 | 0.00 | 0.00 | 0.00 | 5 | 987.6 |
| 20260503184846 | 16 | 214 | 14.5 | 27.4 | 0.00 | 0.00 | 0.00 | 5 | 987.7 |
| 20260503184317 | 16 | 230 | 9.7 | 20.9 | 0.00 | 0.00 | 0.00 | 5 | 987.7 |
| 20260503183846 | 16 | 235 | 12.9 | 22.5 | 0.00 | 0.00 | 0.00 | 5 | 988.0 |
| 20260503183317 | 16 | 217 | 9.7 | 17.7 | 0.00 | 0.00 | 0.00 | 5 | 988.1 |
| 20260503182846 | 16 | 180 | 11.3 | 24.1 | 0.00 | 0.00 | 0.00 | 5 | 988.1 |
| 20260503182317 | 16 | 242 | 9.7 | 24.1 | 0.00 | 0.00 | 0.00 | 5 | 988.2 |
| 20260503181846 | 16 | 215 | 9.7 | 19.3 | 0.00 | 0.00 | 0.00 | 5 | 988.2 |
| 20260503181317 | 16 | 203 | 11.3 | 19.3 | 0.00 | 0.00 | 0.00 | 5 | 988.7 |
| 20260503180846 | 16 | 211 | 14.5 | 29.0 | 0.00 | 0.00 | 0.00 | 5 | 988.7 |
| 20260503180317 | 16 | 222 | 12.9 | 20.9 | 0.00 | 0.00 | 0.00 | 5 | 988.6 |
| 20260503175846 | 16 | 245 | 11.3 | 20.9 | 0.00 | 0.00 | 0.00 | 5 | 988.6 |
| 20260503175317 | 16 | 223 | 11.3 | 24.1 | 0.00 | 0.00 | 0.00 | 5 | 988.6 |
| 20260503174846 | 16 | 213 | 11.3 | 24.1 | 0.00 | 0.00 | 0.00 | 5 | 988.6 |
| 20260503174317 | 17 | 207 | 12.9 | 24.1 | 0.00 | 0.00 | 0.00 | 5 | 988.6 |
| 20260503173846 | 16 | 216 | 14.5 | 24.1 | 0.00 | 0.00 | 0.00 | 5 | 988.8 |
| 20260503173317 | 16 | 200 | 12.9 | 20.9 | 0.00 | 0.00 | 0.00 | 5 | 988.9 |
| 20260503172847 | 16 | 223 | 11.3 | 17.7 | 0.00 | 0.00 | 0.00 | 5 | 988.9 |
| 20260503172318 | 16 | 219 | 9.7 | 19.3 | 0.00 | 0.00 | 0.00 | 5 | 988.9 |
| 20260503171847 | 16 | 207 | 9.7 | 16.1 | 0.00 | 0.00 | 0.00 | 6 | 988.9 |
| 20260503171318 | 16 | 220 | 11.3 | 17.7 | 0.00 | 0.00 | 0.00 | 5 | 989.2 |
| 20260503170847 | 16 | 240 | 14.5 | 24.1 | 0.00 | 0.00 | 0.00 | 5 | 989.2 |
| 20260503170318 | 16 | 222 | 14.5 | 19.3 | 0.00 | 0.00 | 0.00 | 5 | 989.2 |
| 20260503150846 | 15 | 218 | 14.5 | 20.9 | 0.00 | 0.00 | 0.00 | 6 | 991.2 |
| 20260503150319 | 14 | 225 | 11.3 | 24.1 | 0.00 | 0.00 | 0.00 | 7 | 991.3 |
| 20260503131318 | 11 | 221 | 11.3 | 19.3 | 0.00 | 0.00 | 0.00 | 7 | 992.1 |
| 20260503130847 | 11 | 240 | 8.0 | 17.7 | 0.00 | 0.00 | 0.00 | 7 | 992.1 |
| 20260503130319 | 11 | 226 | 8.0 | 16.1 | 0.00 | 0.00 | 0.00 | 7 | 992.0 |
| 20260503110317 | 6 | 205 | 6.4 | 16.1 | 0.00 | 0.00 | 0.00 | 7 | 991.6 |
| 20260503090318 | 6 | 199 | 4.8 | 11.3 | 0.00 | 0.00 | 0.00 | 7 | 991.9 |
| 20260503081318 | 6 | 201 | 4.8 | 9.7 | 0.00 | 0.00 | 0.00 | 7 | 992.0 |
| 20260503080846 | 6 | 209 | 4.8 | 8.0 | 0.00 | 0.00 | 0.00 | 7 | 992.1 |
| 20260503080317 | 6 | 191 | 4.8 | 14.5 | 0.00 | 0.00 | 0.00 | 7 | 992.0 |
| 20260503072846 | 6 | 205 | 4.8 | 9.7 | 0.00 | 0.00 | 0.00 | 7 | 992.1 |
| 20260503072317 | 6 | 230 | 4.8 | 12.9 | 0.00 | 0.00 | 0.00 | 7 | 992.1 |
| 20260503071846 | 6 | 216 | 4.8 | 9.7 | 0.00 | 0.00 | 0.00 | 7 | 992.1 |
| 20260503071318 | 6 | 194 | 3.2 | 6.4 | 0.00 | 0.00 | 0.00 | 7 | 992.2 |
| 20260503070846 | 6 | 210 | 3.2 | 8.0 | 0.00 | 0.00 | 0.00 | 7 | 992.2 |
| 20260503070317 | 6 | 200 | 3.2 | 6.4 | 0.00 | 0.00 | 0.00 | 7 | 992.2 |
| 20260503060317 | 6 | 218 | 1.6 | 3.2 | 0.00 | 0.00 | 0.00 | 7 | 992.7 |
| 20260503054846 | 6 | 201 | 1.6 | 3.2 | 0.00 | 0.00 | 0.00 | 7 | 992.8 |
| 20260503054318 | 6 | 216 | 1.6 | 3.2 | 0.00 | 0.00 | 0.00 | 7 | 992.8 |
| 20260503053847 | 6 | 202 | 1.6 | 3.2 | 0.00 | 0.00 | 0.00 | 7 | 992.8 |
| 20260503053318 | 6 | 210 | 1.6 | 3.2 | 0.00 | 0.00 | 0.00 | 7 | 992.7 |
| 20260503052847 | 6 | 215 | 1.6 | 6.4 | 0.00 | 0.00 | 0.00 | 7 | 992.7 |
| 20260503052318 | 6 | 194 | 1.6 | 3.2 | 0.00 | 0.00 | 0.00 | 7 | 992.8 |
| 20260503051847 | 6 | 213 | 1.6 | 3.2 | 0.00 | 0.00 | 0.00 | 7 | 992.8 |
| 20260503051318 | 6 | 191 | 1.6 | 3.2 | 0.00 | 0.00 | 0.00 | 7 | 992.9 |
| 20260503050847 | 6 | 209 | 1.6 | 3.2 | 0.00 | 0.00 | 0.00 | 7 | 992.9 |
| 20260503050318 | 6 | 202 | 1.6 | 3.2 | 0.00 | 0.00 | 0.00 | 7 | 992.8 |
| 20260503045847 | 5 | 221 | 1.6 | 3.2 | 0.00 | 0.00 | 0.00 | 7 | 992.8 |
| 20260503045318 | 5 | 232 | 0.0 | 1.6 | 0.00 | 0.00 | 0.00 | 7 | 992.8 |
| 20260503044846 | 5 | 212 | 0.0 | 3.2 | 0.00 | 0.00 | 0.00 | 7 | 992.8 |
| 20260503044317 | 5 | 200 | 1.6 | 1.6 | 0.00 | 0.00 | 0.00 | 7 | 992.8 |
| 20260503043846 | 5 | 202 | 0.0 | 1.6 | 0.00 | 0.00 | 0.00 | 7 | 992.7 |
| 20260503043318 | 5 | 166 | 0.0 | 1.6 | 0.00 | 0.00 | 0.00 | 7 | 992.7 |
| 20260503042846 | 5 | 170 | 0.0 | 1.6 | 0.00 | 0.00 | 0.00 | 7 | 992.7 |
| 20260503042318 | 5 | 202 | 0.0 | 1.6 | 0.00 | 0.00 | 0.00 | 7 | 992.8 |
| 20260503041846 | 5 | 184 | 0.0 | 1.6 | 0.00 | 0.00 | 0.00 | 7 | 992.8 |
| 20260503041317 | 5 | 0 | 0.0 | 0.0 | 0.00 | 0.00 | 0.00 | 7 | 992.8 |
| 20260503040846 | 5 | 0 | 0.0 | 0.0 | 0.00 | 0.00 | 0.00 | 7 | 992.9 |
| 20260503040317 | 5 | 0 | 0.0 | 0.0 | 0.00 | 0.00 | 0.00 | 7 | 992.9 |
| 20260503035846 | 5 | 0 | 0.0 | 0.0 | 0.00 | 0.00 | 0.00 | 7 | 992.8 |
| 20260503035317 | 5 | 0 | 0.0 | 0.0 | 0.00 | 0.00 | 0.00 | 7 | 992.8 |
| 20260503034846 | 5 | 0 | 0.0 | 0.0 | 0.00 | 0.00 | 0.00 | 7 | 992.9 |
| 20260503034317 | 5 | 247 | 0.0 | 1.6 | 0.00 | 0.00 | 0.00 | 7 | 992.9 |
| 20260503033846 | 5 | 0 | 0.0 | 0.0 | 0.00 | 0.00 | 0.00 | 7 | 992.9 |
| 20260503033320 | 5 | 0 | 0.0 | 0.0 | 0.00 | 0.00 | 0.00 | 7 | 992.9 |
| 20260503032846 | 5 | 213 | 0.0 | 1.6 | 0.00 | 0.00 | 0.00 | 7 | 992.9 |
| 20260503032318 | 5 | 0 | 0.0 | 1.6 | 0.00 | 0.00 | 0.00 | 7 | 993.1 |
| 20260503031846 | 5 | 202 | 0.0 | 3.2 | 0.00 | 0.00 | 0.00 | 7 | 993.1 |
| 20260503031317 | 5 | 0 | 0.0 | 0.0 | 0.00 | 0.00 | 0.00 | 7 | 993.2 |
| 20260503030846 | 5 | 0 | 0.0 | 0.0 | 0.00 | 0.00 | 0.00 | 7 | 993.2 |
| 20260503030317 | 5 | 0 | 0.0 | 0.0 | 0.00 | 0.00 | 0.00 | 7 | 993.1 |
| 20260503025846 | 5 | 0 | 0.0 | 0.0 | 0.00 | 0.00 | 0.00 | 7 | 993.1 |
| 20260503025317 | 5 | 0 | 0.0 | 0.0 | 0.00 | 0.00 | 0.00 | 7 | 993.0 |
| 20260503024846 | 5 | 0 | 0.0 | 0.0 | 0.00 | 0.00 | 0.00 | 7 | 992.9 |
| 20260503024317 | 5 | 0 | 0.0 | 0.0 | 0.00 | 0.00 | 0.00 | 7 | 992.9 |
| 20260503023846 | 5 | 0 | 0.0 | 0.0 | 0.00 | 0.00 | 0.00 | 7 | 992.9 |
| 20260503023317 | 5 | 0 | 0.0 | 0.0 | 0.00 | 0.00 | 0.00 | 7 | 992.9 |
| 20260503022846 | 6 | 0 | 0.0 | 0.0 | 0.00 | 0.00 | 0.00 | 7 | 992.8 |
| 20260503022317 | 6 | 0 | 0.0 | 0.0 | 0.00 | 0.00 | 0.00 | 7 | 992.8 |
| 20260503021846 | 6 | 0 | 0.0 | 0.0 | 0.00 | 0.00 | 0.00 | 7 | 992.8 |
| 20260503021317 | 6 | 0 | 0.0 | 0.0 | 0.00 | 0.00 | 0.00 | 7 | 992.8 |
| 20260503020846 | 6 | 0 | 0.0 | 0.0 | 0.00 | 0.00 | 0.00 | 7 | 992.8 |
| 20260503020317 | 6 | 0 | 0.0 | 0.0 | 0.00 | 0.00 | 0.00 | 7 | 992.6 |
| 20260503015847 | 6 | 0 | 0.0 | 0.0 | 0.00 | 0.00 | 0.00 | 7 | 992.6 |
| 20260503015318 | 7 | 0 | 0.0 | 0.0 | 0.00 | 0.00 | 0.00 | 7 | 992.6 |